Location: Apollinopolis Magna
(24.9792°N, 32.8772°E)
Time: 04:36:37
(UTC+00:00)

Cosmos 1844 Rocket - Pass Details

Date: 02 March 2021
Orbit: 826 x 843 km, 71.0° (Epoch: 12 April)

Event Time Altitude Azimuth Distance (km) Brightness Sun altitude
Rises 17:04:00 0° 359° (N) 3,361 5.8 -17.3°
Reaches altitude 10° 17:06:58 10° 14° (NNE) 2,426 4.9 -17.9°
Enters shadow 17:09:57 21° 45° (NE) 1,787 4.0 -18.6°
